Champaign, IL

10:36 AM CDT on May 29, 2017 (GMT -0500)
Univ Of Illinois-Willard

Weather History for KCMI - February, 2014

Change the Weather History Date:

Friday, February 21, 2014

  Actual Average Record
Temperature  
Mean Temperature 38 °F 32 °F  
Max Temperature 44 °F 40 °F 62 °F (2017)
Min Temperature 32 °F 23 °F 8 °F (2008)
Degree Days  
Heating Degree Days 27 34  
Month to date heating degree days 993 770  
Since 1 July heating degree days 4773 4280  
Cooling Degree Days 0 0  
Month to date cooling degree days 0 0  
Year to date cooling degree days 0 0  
Moisture  
Dew Point 27 °F    
Average Humidity 64    
Maximum Humidity 82    
Minimum Humidity 46    
Precipitation  
Precipitation T in 0.07 in 0.58 in (2011)
Month to date precipitation 1.78 1.52  
Year to date precipitation 2.49 3.57  
Sea Level Pressure  
Sea Level Pressure 29.78 in    
Wind  
Wind Speed 19 mph (SW)    
Max Wind Speed 36 mph    
Max Gust Speed 45 mph    
Visibility 10 miles    
Events Snow    
T = Trace of Precipitation, MM = Missing Value Source: NWS Daily Summary

Daily Weather History Graph

Daily Weather History Graph

Search for Another Location

Airport or City:

Trip Planner

Search our weather history database for the weather conditions in past years. The results will help you decide how hot, cold, wet, or windy it might be!

Date:

Astronomy

Feb. 21, 2014 Rise Set
Actual Time 6:38 AM CST 5:35 PM CST
Civil Twilight 6:10 AM CST 6:03 PM CST
Nautical Twilight 5:39 AM CST 6:35 PM CST
Astronomical Twilight 5:07 AM CST 7:06 PM CST
Moon No Moon Rise 10:02 AM CST (2/21)
Length of Visible Light 11h 52m
Length of Day
10h 57m
Waning Gibbous, 60% of the Moon is Illuminated
Feb 21
Waning Gibbous
Feb 22
Last Quarter
Mar 1
New
Mar 8
First Quarter
Mar 16
Full

Hourly Weather History & Observations

Time (CST) Temp. Windchill Dew Point Humidity Pressure Visibility Wind Dir Wind Speed Gust Speed Precip Events Conditions
12:53 AM 35.1 °F 23.5 °F 30.0 °F 82% 29.60 in 10.0 mi SW 21.9 mph - N/A   Clear
1:53 AM 36.0 °F 23.9 °F 30.0 °F 79% 29.63 in 10.0 mi SW 25.3 mph 31.1 mph N/A   Clear
2:53 AM 36.0 °F 25.0 °F 28.9 °F 76% 29.63 in 10.0 mi SW 20.7 mph - N/A   Mostly Cloudy
3:53 AM 35.1 °F 23.8 °F 28.9 °F 78% 29.64 in 9.0 mi SW 20.7 mph - 0.00 in Snow Light Snow
4:53 AM 35.1 °F 23.3 °F 27.0 °F 72% 29.67 in 9.0 mi WSW 23.0 mph 40.3 mph 0.00 in   Overcast
5:53 AM 34.0 °F 22.4 °F 26.1 °F 73% 29.70 in 10.0 mi WSW 20.7 mph 29.9 mph N/A   Overcast
6:53 AM 33.1 °F 20.9 °F 26.1 °F 75% 29.73 in 10.0 mi WSW 21.9 mph 32.2 mph N/A   Overcast
7:03 AM 33.8 °F 20.1 °F 24.8 °F 70% 29.71 in 10.0 mi WSW 29.9 mph 41.4 mph N/A   Overcast
7:53 AM 33.1 °F 18.7 °F 24.1 °F 70% 29.75 in 10.0 mi WSW 32.2 mph 41.4 mph N/A   Overcast
8:00 AM 33.8 °F 20.3 °F 24.8 °F 70% 29.74 in 10.0 mi WSW 28.8 mph 39.1 mph N/A   Mostly Cloudy
8:53 AM 33.1 °F 20.3 °F 25.0 °F 72% 29.78 in 10.0 mi WSW 24.2 mph 31.1 mph N/A   Scattered Clouds
9:11 AM 33.8 °F 21.6 °F 24.8 °F 70% 29.76 in 10.0 mi WSW 23.0 mph 36.8 mph N/A   Mostly Cloudy
9:41 AM 33.8 °F 19.2 °F 21.2 °F 60% 29.77 in 10.0 mi WSW 34.5 mph 44.9 mph N/A   Scattered Clouds
9:53 AM 33.1 °F 19.8 °F 23.0 °F 66% 29.80 in 10.0 mi West 26.5 mph 43.7 mph N/A   Clear
10:53 AM 35.1 °F 22.0 °F 24.1 °F 64% 29.84 in 10.0 mi WSW 28.8 mph 39.1 mph N/A   Clear
11:53 AM 37.0 °F 25.1 °F 21.9 °F 54% 29.84 in 10.0 mi WSW 26.5 mph 38.0 mph N/A   Clear
12:53 PM 39.0 °F 27.8 °F 23.0 °F 53% 29.84 in 10.0 mi WSW 26.5 mph 34.5 mph N/A   Clear
1:53 PM 41.0 °F 31.1 °F 23.0 °F 49% 29.83 in 10.0 mi WSW 23.0 mph 35.7 mph N/A   Clear
2:53 PM 43.0 °F 34.8 °F 26.1 °F 51% 29.85 in 10.0 mi WSW 18.4 mph 28.8 mph N/A   Clear
3:53 PM 43.0 °F 35.1 °F 28.0 °F 56% 29.86 in 10.0 mi WSW 17.3 mph - N/A   Clear
4:53 PM 42.1 °F 34.5 °F 28.9 °F 60% 29.87 in 10.0 mi SW 15.0 mph - N/A   Clear
5:53 PM 37.0 °F 31.6 °F 30.0 °F 76% 29.87 in 10.0 mi SSW 6.9 mph - N/A   Mostly Cloudy
6:53 PM 35.1 °F - 30.0 °F 82% 29.88 in 10.0 mi Calm Calm - N/A   Overcast
7:53 PM 37.0 °F 31.6 °F 28.0 °F 70% 29.86 in 10.0 mi South 6.9 mph - N/A   Overcast
8:53 PM 37.9 °F 30.0 °F 28.0 °F 68% 29.87 in 10.0 mi South 12.7 mph - N/A   Overcast
9:53 PM 37.0 °F 29.8 °F 28.0 °F 70% 29.87 in 10.0 mi South 10.4 mph - N/A   Overcast
10:53 PM 39.9 °F 31.4 °F 30.0 °F 68% 29.87 in 10.0 mi SW 16.1 mph - N/A   Mostly Cloudy
11:53 PM 37.0 °F 29.8 °F 30.0 °F 76% 29.90 in 10.0 mi WSW 10.4 mph - N/A   Clear